| time (UTC) | temp C | wind direction | speed KPH | gust KPH | rain 1hr cm | rain 24hr cm | rain mn cm | humidity % | barometer mb |
| 20260509080028 | 7 | 263 | 0.0 | 0.0 | 0.00 | 0.00 | 0.00 | 51 | 1018.9 |
| 20260509075020 | 7 | 263 | 0.0 | 0.0 | 0.00 | 0.00 | 0.00 | 51 | 1019.0 |
| 20260509074036 | 7 | 234 | 0.0 | 0.0 | 0.00 | 0.00 | 0.00 | 50 | 1019.1 |
| 20260509073034 | 8 | 234 | 0.0 | 0.0 | 0.00 | 0.00 | 0.00 | 50 | 1019.1 |
| 20260509072029 | 8 | 232 | 1.6 | 0.0 | 0.00 | 0.00 | 0.00 | 49 | 1019.2 |
| 20260509071022 | 8 | 221 | 0.0 | 0.0 | 0.00 | 0.00 | 0.00 | 48 | 1019.3 |
| 20260509070035 | 8 | 259 | 0.0 | 0.0 | 0.00 | 0.00 | 0.00 | 48 | 1019.4 |
| 20260509065033 | 8 | 259 | 0.0 | 0.0 | 0.00 | 0.00 | 0.00 | 48 | 1019.4 |
| 20260509064030 | 8 | 259 | 1.6 | 0.0 | 0.00 | 0.00 | 0.00 | 48 | 1019.5 |
| 20260509063022 | 8 | 290 | 0.0 | 0.0 | 0.00 | 0.00 | 0.00 | 48 | 1019.5 |
| 20260509061033 | 9 | 191 | 0.0 | 0.0 | 0.00 | 0.00 | 0.00 | 47 | 1019.3 |
| 20260509060025 | 9 | 246 | 0.0 | 0.0 | 0.00 | 0.00 | 0.00 | 46 | 1019.3 |
| 20260509055023 | 9 | 246 | 1.6 | 0.0 | 0.00 | 0.00 | 0.00 | 46 | 1019.2 |
| 20260509052027 | 8 | 275 | 0.0 | 0.0 | 0.00 | 0.00 | 0.00 | 48 | 1018.8 |
| 20260509050036 | 9 | 275 | 0.0 | 0.0 | 0.00 | 0.00 | 0.00 | 44 | 1019.0 |
| 20260509045033 | 10 | 275 | 0.0 | 0.0 | 0.00 | 0.00 | 0.00 | 44 | 1019.1 |
| 20260509044023 | 10 | 275 | 0.0 | 0.0 | 0.00 | 0.00 | 0.00 | 44 | 1019.2 |
| 20260509043036 | 9 | 275 | 0.0 | 0.0 | 0.00 | 0.00 | 0.00 | 44 | 1019.3 |
| 20260509042029 | 9 | 275 | 0.0 | 0.0 | 0.00 | 0.00 | 0.00 | 45 | 1019.4 |
| 20260509041041 | 9 | 275 | 0.0 | 0.0 | 0.00 | 0.00 | 0.00 | 44 | 1019.4 |
| 20260509040037 | 9 | 275 | 1.6 | 0.0 | 0.00 | 0.00 | 0.00 | 44 | 1019.3 |
| 20260509035030 | 10 | 275 | 0.0 | 0.0 | 0.00 | 0.00 | 0.00 | 44 | 1019.3 |
| 20260509034022 | 10 | 275 | 0.0 | 0.0 | 0.00 | 0.00 | 0.00 | 43 | 1019.2 |
| 20260509033038 | 10 | 275 | 0.0 | 0.0 | 0.00 | 0.00 | 0.00 | 43 | 1019.1 |
| 20260509032030 | 10 | 275 | 0.0 | 0.0 | 0.00 | 0.00 | 0.00 | 43 | 1019.1 |
| 20260509031029 | 10 | 275 | 0.0 | 0.0 | 0.00 | 0.00 | 0.00 | 42 | 1018.8 |
| 20260509030023 | 10 | 275 | 0.0 | 0.0 | 0.00 | 0.00 | 0.00 | 43 | 1018.7 |
| 20260509025040 | 10 | 275 | 0.0 | 0.0 | 0.00 | 0.00 | 0.00 | 42 | 1018.7 |
| 20260509024032 | 11 | 275 | 0.0 | 0.0 | 0.00 | 0.00 | 0.00 | 42 | 1018.7 |
| 20260509023032 | 11 | 275 | 0.0 | 0.0 | 0.00 | 0.00 | 0.00 | 42 | 1018.6 |
| 20260509022031 | 11 | 275 | 0.0 | 0.0 | 0.00 | 0.00 | 0.00 | 43 | 1018.6 |
| 20260509021022 | 11 | 275 | 0.0 | 0.0 | 0.00 | 0.00 | 0.00 | 42 | 1018.4 |
| 20260509020039 | 12 | 179 | 0.0 | 0.0 | 0.00 | 0.00 | 0.00 | 40 | 1018.3 |
| 20260509015032 | 12 | 278 | 0.0 | 0.0 | 0.00 | 0.00 | 0.00 | 40 | 1018.3 |
| 20260509014029 | 12 | 277 | 0.0 | 0.0 | 0.00 | 0.00 | 0.00 | 39 | 1018.4 |
| 20260509013024 | 13 | 277 | 0.0 | 0.0 | 0.00 | 0.00 | 0.00 | 38 | 1018.4 |
| 20260509012037 | 13 | 332 | 0.0 | 0.0 | 0.00 | 0.00 | 0.00 | 38 | 1018.5 |
| 20260509010028 | 14 | 276 | 0.0 | 0.0 | 0.00 | 0.00 | 0.00 | 36 | 1017.8 |
| 20260509005026 | 14 | 318 | 1.6 | 0.0 | 0.00 | 0.00 | 0.00 | 37 | 1017.8 |
| 20260509004038 | 14 | 285 | 1.6 | 0.0 | 0.00 | 0.00 | 0.00 | 36 | 1017.9 |
| 20260509002028 | 15 | 296 | 3.2 | 0.0 | 0.00 | 0.00 | 0.00 | 35 | 1017.9 |
| 20260509001022 | 15 | 341 | 3.2 | 0.0 | 0.00 | 0.00 | 0.00 | 35 | 1017.9 |
| 20260509000041 | 15 | 306 | 1.6 | 0.0 | 0.00 | 0.00 | 0.00 | 35 | 1018.1 |
| 20260508235033 | 15 | 343 | 3.2 | 0.0 | 0.00 | 0.00 | 0.00 | 36 | 1018.1 |
| 20260508233034 | 15 | 291 | 4.8 | 0.0 | 0.00 | 0.00 | 0.00 | 36 | 1018.1 |
| 20260508232030 | 15 | 321 | 3.2 | 0.0 | 0.00 | 0.00 | 0.00 | 37 | 1018.2 |
| 20260508230029 | 15 | 330 | 4.8 | 0.0 | 0.00 | 0.00 | 0.00 | 34 | 1018.2 |
| 20260508225022 | 16 | 360 | 3.2 | 0.0 | 0.00 | 0.00 | 0.00 | 35 | 1018.4 |
| 20260508224037 | 16 | 256 | 3.2 | 0.0 | 0.00 | 0.00 | 0.00 | 35 | 1018.3 |
| 20260508223032 | 16 | 296 | 4.8 | 0.0 | 0.00 | 0.00 | 0.00 | 34 | 1018.3 |
| 20260508222032 | 16 | 355 | 4.8 | 0.0 | 0.00 | 0.00 | 0.00 | 35 | 1018.2 |
| 20260508221024 | 16 | 28 | 4.8 | 0.0 | 0.00 | 0.00 | 0.00 | 35 | 1018.3 |
| 20260508215039 | 16 | 317 | 6.4 | 0.0 | 0.00 | 0.00 | 0.00 | 37 | 1018.4 |
| 20260508214033 | 16 | 315 | 4.8 | 0.0 | 0.00 | 0.00 | 0.00 | 35 | 1018.7 |
| 20260508211031 | 16 | 307 | 4.8 | 0.0 | 0.00 | 0.00 | 0.00 | 37 | 1018.9 |
| 20260508205025 | 16 | 336 | 3.2 | 0.0 | 0.00 | 0.00 | 0.00 | 35 | 1018.2 |
| 20260508204023 | 16 | 355 | 6.4 | 0.0 | 0.00 | 0.00 | 0.00 | 36 | 1018.2 |
| 20260508203033 | 16 | 5 | 4.8 | 0.0 | 0.00 | 0.00 | 0.00 | 37 | 1018.2 |
| 20260508202027 | 15 | 321 | 3.2 | 0.0 | 0.00 | 0.00 | 0.00 | 36 | 1018.4 |
| 20260508201040 | 15 | 285 | 3.2 | 0.0 | 0.00 | 0.00 | 0.00 | 36 | 1018.6 |
| 20260508195027 | 16 | 324 | 3.2 | 0.0 | 0.00 | 0.00 | 0.00 | 36 | 1019.1 |
| 20260508193021 | 15 | 5 | 1.6 | 0.0 | 0.00 | 0.00 | 0.00 | 39 | 1019.3 |
| 20260508192033 | 15 | 161 | 1.6 | 0.0 | 0.00 | 0.00 | 0.00 | 35 | 1019.2 |
| 20260508191029 | 15 | 326 | 3.2 | 0.0 | 0.00 | 0.00 | 0.00 | 42 | 1019.3 |
| 20260508190040 | 15 | 223 | 1.6 | 0.0 | 0.00 | 0.00 | 0.00 | 36 | 1019.4 |
| 20260508185037 | 15 | 254 | 1.6 | 0.0 | 0.00 | 0.00 | 0.00 | 39 | 1019.5 |
| 20260508183026 | 15 | 282 | 1.6 | 0.0 | 0.00 | 0.00 | 0.00 | 37 | 1019.1 |
| 20260508182020 | 15 | 355 | 1.6 | 0.0 | 0.00 | 0.00 | 0.00 | 37 | 1019.1 |
| 20260508180034 | 14 | 234 | 1.6 | 0.0 | 0.00 | 0.00 | 0.00 | 38 | 1019.5 |
| 20260508175026 | 14 | 10 | 3.2 | 0.0 | 0.00 | 0.00 | 0.00 | 39 | 1019.7 |
| 20260508174022 | 14 | 267 | 1.6 | 0.0 | 0.00 | 0.00 | 0.00 | 39 | 1019.8 |
| 20260508172031 | 13 | 250 | 3.2 | 0.0 | 0.00 | 0.00 | 0.00 | 38 | 1019.9 |
| 20260508171028 | 13 | 254 | 3.2 | 0.0 | 0.00 | 0.00 | 0.00 | 42 | 1019.9 |
| 20260508164035 | 12 | 250 | 4.8 | 0.0 | 0.00 | 0.00 | 0.00 | 43 | 1020.1 |
| 20260508163028 | 13 | 355 | 1.6 | 0.0 | 0.00 | 0.00 | 0.00 | 43 | 1019.6 |
| 20260508162019 | 13 | 355 | 1.6 | 0.0 | 0.00 | 0.00 | 0.00 | 45 | 1019.7 |
| 20260508160020 | 12 | 238 | 3.2 | 0.0 | 0.00 | 0.00 | 0.00 | 45 | 1020.2 |
| 20260508155037 | 11 | 294 | 6.4 | 0.0 | 0.00 | 0.00 | 0.00 | 46 | 1020.2 |
| 20260508154028 | 11 | 268 | 1.6 | 0.0 | 0.00 | 0.00 | 0.00 | 47 | 1020.2 |
| 20260508153022 | 11 | 233 | 3.2 | 0.0 | 0.00 | 0.00 | 0.00 | 46 | 1020.4 |
| 20260508152021 | 11 | 254 | 3.2 | 0.0 | 0.00 | 0.00 | 0.00 | 49 | 1019.8 |
| 20260508151037 | 11 | 304 | 3.2 | 0.0 | 0.00 | 0.00 | 0.00 | 47 | 1020.1 |
| 20260508150033 | 10 | 236 | 3.2 | 0.0 | 0.00 | 0.00 | 0.00 | 50 | 1020.1 |
| 20260508144025 | 9 | 95 | 1.6 | 0.0 | 0.00 | 0.00 | 0.00 | 54 | 1020.4 |
| 20260508143026 | 8 | 82 | 0.0 | 0.0 | 0.00 | 0.00 | 0.00 | 55 | 1020.5 |
| 20260508142018 | 8 | 105 | 0.0 | 0.0 | 0.00 | 0.00 | 0.00 | 56 | 1020.7 |
| 20260508135029 | 7 | 40 | 0.0 | 0.0 | 0.00 | 0.00 | 0.00 | 61 | 1020.3 |
| 20260508134022 | 6 | 124 | 0.0 | 0.0 | 0.00 | 0.00 | 0.00 | 62 | 1020.2 |
| 20260508133021 | 6 | 123 | 0.0 | 0.0 | 0.00 | 0.00 | 0.00 | 61 | 1020.1 |
| 20260508131031 | 5 | 136 | 0.0 | 0.0 | 0.00 | 0.00 | 0.00 | 61 | 1020.0 |
| 20260508130023 | 5 | 167 | 0.0 | 0.0 | 0.00 | 0.00 | 0.00 | 66 | 1020.0 |
| 20260508124035 | 3 | 167 | 0.0 | 0.0 | 0.00 | 0.00 | 0.00 | 70 | 1019.6 |
| 20260508123028 | 2 | 167 | 0.0 | 0.0 | 0.00 | 0.00 | 0.00 | 73 | 1019.4 |
| 20260508122020 | 2 | 167 | 0.0 | 0.0 | 0.00 | 0.00 | 0.00 | 73 | 1019.5 |
| 20260508121034 | 2 | 241 | 0.0 | 0.0 | 0.00 | 0.00 | 0.00 | 71 | 1019.5 |
| 20260508120034 | 2 | 242 | 0.0 | 0.0 | 0.00 | 0.00 | 0.00 | 69 | 1019.5 |
| 20260508115029 | 2 | 242 | 0.0 | 0.0 | 0.00 | 0.00 | 0.00 | 68 | 1019.4 |
| 20260508114024 | 2 | 242 | 0.0 | 0.0 | 0.00 | 0.00 | 0.00 | 67 | 1019.3 |
| 20260508113021 | 2 | 242 | 0.0 | 0.0 | 0.00 | 0.00 | 0.00 | 67 | 1019.2 |
| 20260508112034 | 3 | 242 | 0.0 | 0.0 | 0.00 | 0.00 | 0.00 | 67 | 1019.2 |
| 20260508111030 | 3 | 242 | 0.0 | 0.0 | 0.00 | 0.00 | 0.00 | 66 | 1019.3 |
| 20260508110027 | 3 | 242 | 0.0 | 0.0 | 0.00 | 0.00 | 0.00 | 67 | 1018.6 |
| 20260508105022 | 3 | 242 | 0.0 | 0.0 | 0.00 | 0.00 | 0.00 | 67 | 1018.5 |
| 20260508104036 | 3 | 242 | 0.0 | 0.0 | 0.00 | 0.00 | 0.00 | 67 | 1018.5 |
| 20260508103028 | 2 | 241 | 0.0 | 0.0 | 0.00 | 0.00 | 0.00 | 68 | 1019.2 |
| 20260508102030 | 2 | 242 | 0.0 | 0.0 | 0.00 | 0.00 | 0.00 | 69 | 1018.4 |
| 20260508101021 | 3 | 242 | 0.0 | 0.0 | 0.00 | 0.00 | 0.00 | 68 | 1018.4 |
| 20260508095022 | 3 | 242 | 0.0 | 0.0 | 0.00 | 0.00 | 0.00 | 69 | 1018.6 |
| 20260508094040 | 3 | 242 | 0.0 | 0.0 | 0.00 | 0.00 | 0.00 | 69 | 1018.7 |
| 20260508093032 | 3 | 241 | 0.0 | 0.0 | 0.00 | 0.00 | 0.00 | 69 | 1018.8 |
| 20260508092029 | 4 | 241 | 0.0 | 0.0 | 0.00 | 0.00 | 0.00 | 68 | 1018.9 |
| 20260508091027 | 5 | 241 | 0.0 | 0.0 | 0.00 | 0.00 | 0.00 | 66 | 1019.0 |
| 20260508090029 | 5 | 241 | 0.0 | 0.0 | 0.00 | 0.00 | 0.00 | 67 | 1019.0 |
| 20260508085020 | 5 | 241 | 0.0 | 0.0 | 0.00 | 0.00 | 0.00 | 66 | 1019.0 |
| 20260508084034 | 5 | 241 | 0.0 | 0.0 | 0.00 | 0.00 | 0.00 | 67 | 1019.0 |
| 20260508083029 | 5 | 241 | 0.0 | 0.0 | 0.00 | 0.00 | 0.00 | 66 | 1019.0 |
| 20260508082021 | 5 | 241 | 0.0 | 0.0 | 0.00 | 0.00 | 0.00 | 67 | 1019.0 |
| 20260508081020 | 5 | 241 | 0.0 | 0.0 | 0.00 | 0.00 | 0.00 | 69 | 1019.0 |